Regional Weather Roundup
Issued by NWS

Home | Current Version | Previous Version | Text Only | Print | Product List | Glossary Off
Versions: 1 2 3 4 5 6 7 8 9 10 11 12 13 14 15 16 17 18 19 20 21 22 23 24 25 26 27 28 29 30 31 32 33 34 35 36 37 38 39 40 41 42 43 44 45 46 47 48 49 50

548
ASUS44 KJAN 230210
RWRMS

MISSISSIPPI HOURLY WEATHER ROUNDUP
NATIONAL WEATHER SERVICE JACKSON MS
900 PM CDT TUE JUL 22 2014

NOTE: "FAIR: INDICATES FEW OR NO CLOUDS BELOW 12,000 FEET WITH NO
SIGNIFICANT WEATHER AND/OR OBSTRUCTIONS TO VISIBILITY.

MSZ001>002-007>008-010>013-018>021-025>028-034>036-230300-
NORTHWEST MISSISSIPPI

CITY           SKY/WX    TMP DP  RH WIND       PRES   REMARKS
CLARKSDALE     FAIR      77  77 100 CALM      30.05R
CLEVELAND      FAIR      78  75  92 N5        30.03S
GREENWOOD      MOCLDY    79  73  82 SE8       30.05R
GREENVILLE     FAIR      79  75  87 CALM      30.03R
GRENADA        MOCLDY    79  73  83 CALM      30.04R THUNDER
OLIVE BRANCH   CLEAR     79  77  94 CALM      30.05S
OXFORD         FAIR      77  73  88 CALM      30.07R
TUNICA         FAIR      81  72  74 NW5       30.05R
$$

MSZ003>006-009-014>017-022>024-029>033-037>039-230300-
NORTHEAST MISSISSIPPI

CITY           SKY/WX    TMP DP  RH WIND       PRES   REMARKS
BELMONT        FAIR      74  73  93 CALM      30.08R
COLUMBUS AFB   FAIR      76  76 100 NE1       30.06R
CORINTH        FAIR      79  72  78 S5        30.06R
GOLDN TRIANGLE FAIR      79  72  78 CALM      30.06R
STARKVILLE     FAIR      73  72  94 CALM      30.05R FOG
TUPELO         FAIR      79  75  87 CALM      30.05R
$$

MSZ040-058-230300-
CENTRAL MISSISSIPPI

CITY           SKY/WX    TMP DP  RH WIND       PRES   REMARKS
JACKSON INTL   FAIR      77  72  84 W5        30.06R
JACKSON HAWKNS FAIR      77  68  73 S6        30.07R
MERIDIAN KEY   FAIR      72  70  93 CALM      30.05R
MERIDIAN NAS   CLOUDY    75  71  87 N5        30.05S THUNDER
RAYMOND        CLOUDY    75  72  88 S6        30.07R
VICKSBURG      FAIR      76  72  87 SE5       30.05R
$$

MSZ059>079-230300-
SOUTH MISSISSIPPI

CITY           SKY/WX    TMP DP  RH WIND       PRES   REMARKS
BROOKHAVEN     LGT RAIN  72  70  94 CALM      30.07R
COLUMBIA       FAIR      72  70  94 NW3       30.04F FOG
HATTIESBURG    FAIR      71  69  93 CALM      30.05F
MCCOMB         RAIN      74  70  87 E6        30.06R FOG
NATCHEZ        FAIR      79  73  83 CALM      30.05R
PINE BELT      FAIR      70  66  88 CALM      30.07R
$$

MSZ080>082-230300-
COASTAL MISSISSIPPI

CITY           SKY/WX    TMP DP  RH WIND       PRES   REMARKS
BAY ST LOUIS   PTCLDY   N/A N/A N/A CALM      30.04R
BILOXI         FAIR      75  70  84 NE12      30.04R
PASCAGOULA     FAIR      75  72  90 N6        30.04R
GULFPORT       MOCLDY    78  69  73 N8        30.03S
$$



USA.gov is the U.S. government's official web portal to all federal, state and local government web resources and services.